Printer-friendly version

IAU Minor Planet Center

Minor Planet Center

MPEC 2007-W03 : 2007 VC191

The following Minor Planet Electronic Circular may be linked-to from your own Web pages, but must not otherwise be redistributed electronically.


Read MPEC 2007-W02 Read MPEC 2007-W04


M.P.E.C. 2007-W03                                Issued 2007 Nov. 16, 14:54 UT

     The Minor Planet Electronic Circulars contain information on unusual
         minor planets and routine data on comets.  They are published
   on behalf of Commission 20 of the International Astronomical Union by the
          Minor Planet Center, Smithsonian Astrophysical Observatory,
                          Cambridge, MA 02138, U.S.A.

             Prepared using the Tamkin Foundation Computer Network

                              MPC@CFA.HARVARD.EDU
          URL http://www.cfa.harvard.edu/iau/mpc.html  ISSN 1523-6714

                                  2007 VC191

Observations:
     K07VJ1C* C2007 11 14.31191 03 15 41.79 +03 41 15.6          21.4 V EW003G96
     K07VJ1C  C2007 11 14.31733 03 15 41.04 +03 41 21.6          21.8 V EW003G96
     K07VJ1C  C2007 11 14.32279 03 15 40.24 +03 41 27.3          22.2 V EW003G96
     K07VJ1C  C2007 11 14.32825 03 15 39.52 +03 41 32.2          21.8 V EW003G96
     K07VJ1C  C2007 11 14.34854 03 15 36.73 +03 41 52.2                 EW003G96
     K07VJ1C  C2007 11 14.35177 03 15 36.37 +03 41 55.2                 EW003G96
     K07VJ1C  C2007 11 14.35504 03 15 35.81 +03 41 58.1          21.6 V EW003G96
     K07VJ1C  C2007 11 14.35825 03 15 35.34 +03 42 01.8          21.5 V EW003G96
     K07VJ1C  C2007 11 15.24233 03 13 38.39 +03 56 24.4          21.7 V EW003G96
     K07VJ1C  C2007 11 15.24778 03 13 37.64 +03 56 30.7                 EW003G96
     K07VJ1C  C2007 11 15.25324 03 13 36.89 +03 56 35.6                 EW003G96
     K07VJ1C  C2007 11 15.25874 03 13 36.13 +03 56 41.1          21.9 V EW003G96
     K07VJ1C  C2007 11 15.33476 03 13 25.81 +03 57 55.1          21.9 V EW003G96
     K07VJ1C  C2007 11 15.34208 03 13 24.72 +03 58 03.6                 EW003G96
     K07VJ1C  C2007 11 15.35131 03 13 23.50 +03 58 12.3                 EW003G96

Observer details:
G96 Mt. Lemmon Survey.  Observer A. Boattini.  Measurers E. C. Beshore,
    A. Boattini, G. J. Garradd, A. R. Gibbs, A. D. Grauer, R. E. Hill,
    R. A. Kowalski, S. M. Larson, R. H. McNaught.  1.5-m reflector + CCD.

Orbital elements:
2007 VC191                                               Earth MOID = 0.2235 AU
Epoch 2007 Oct. 27.0 TT = JDT 2454400.5                 MPC
M  91.71082              (2000.0)            P               Q
n   0.51026373     Peri.  219.66055     +0.19535602     +0.91876880
a   1.5509802      Node    64.15104     -0.77489273     +0.35902284
e   0.2301960      Incl.   22.40904     -0.60114664     -0.16421479
P   1.93           H   20.8           G   0.15
From 15 observations 2007 Nov. 14-15.

Ephemeris:
2007 VC191               a,e,i = 1.55, 0.23, 22                  q = 1.1940
Date    TT    R. A. (2000) Decl.     Delta      r     Elong.  Phase     V
2007 11 16    03 11.97   +04 08.9    0.721    1.696   165.3     8.5    21.8
2007 11 17    03 09.79   +04 25.4    0.724    1.699   165.0     8.7    21.8
2007 11 18    03 07.64   +04 42.0    0.728    1.701   164.5     8.9    21.9
2007 11 19    03 05.52   +04 58.6    0.732    1.704   163.9     9.2    21.9
2007 11 20    03 03.43   +05 15.4    0.736    1.707   163.2     9.6    21.9
2007 11 21    03 01.38   +05 32.1    0.741    1.709   162.4    10.0    22.0
2007 11 22    02 59.36   +05 49.0    0.746    1.712   161.6    10.5    22.0
2007 11 23    02 57.38   +06 05.8    0.751    1.714   160.6    11.0    22.0
2007 11 24    02 55.45   +06 22.7    0.756    1.717   159.6    11.5    22.1
2007 11 25    02 53.56   +06 39.5    0.762    1.719   158.6    12.1    22.1
2007 11 26    02 51.72   +06 56.4    0.768    1.722   157.5    12.7    22.2

Timothy B. Spahr             (C) Copyright 2007 MPC           M.P.E.C. 2007-W03

Read MPEC 2007-W02 Read MPEC 2007-W04


Our Web policy. Index to the CBAT/MPC/ICQ pages.


Valid HTML 4.01!